[[{"header":{"parameterUnit":"m.s-1","parameterCategory":1,"la1":30.2991,"la2":30.254,"lo1":-89.0895,"lo2":-89.0444,"dy":0.0017,"dx":0.0017,"nx":28,"ny":28,"refTime":"2024-05-10T03:00:00:Z","depth":0,"parameterNumber":2,"parameterNumberName":"U-component_of_WINDS"},"data":[0,0,0,0,0,0,0,0,0,0,0,0,0,0,0,0,0,0,0,0,0,0,0,0,0,0,0,0,0,0,0,0,0,0,0,0,0,0,0,0,0,0,0,0,0,0,0,0,0,0,0,0,0,0,0,0,0,0,0.5265,0.5266,0,0.5374,0.5375,0.5376,0.5424,0.5424,0.5424,0.5424,0.5539,0.5542,0.5545,0,0,0,0,0,0,0,0,0,0,0,0,0,0.5105,0.5108,0.5265,0.5266,0.5268,0.5373,0.5375,0.5376,0.5424,0.5424,0.5424,0.5424,0.5538,0.5541,0.5545,0,0,0,0,0,0,0,0,0,0,0,0,0,0.519,0.5109,0.5265,0.5304,0.5309,0.5373,0.5375,0.5377,0.5424,0.5424,0.5424,0.5424,0.5536,0.5541,0.5546,0.558,0,0,0.556,0.5562,0,0,0,0,0,0,0,0,0.5186,0.5196,0.5297,0.5302,0.5307,0.5385,0.5361,0.5445,0.5425,0.5381,0.5424,0.5424,0.5488,0.5497,0.5518,0.5585,0.559,0.5561,0.5564,0.5566,0.5567,0,0,0,0,0,0,0,0.518,0.5192,0.5308,0.5299,0.5305,0.5319,0.5331,0.5377,0.5434,0.5384,0.5388,0.54,0.5491,0.5513,0.5521,0.5592,0.5561,0.5565,0.5568,0.557,0.5698,0.5699,0,0,0,0,0,0,0.5167,0.5187,0.5305,0.5311,0.5244,0.5322,0.5335,0.536,0.5434,0.5445,0.54,0.5402,0.5505,0.5515,0.5525,0.5573,0.5566,0.557,0.5573,0.5698,0.5698,0.5699,0,0,0,0,0,0,0.5163,0.5177,0.53,0.525,0.5267,0.5325,0.5353,0.5363,0.5385,0.5446,0.5457,0.5412,0.5505,0.5518,0.5567,0.5578,0.5572,0.5577,0.5697,0.5698,0.5699,0.5667,0,0,0,0,0,0,0.5158,0.5175,0.5187,0.525,0.5269,0.5338,0.5353,0.5365,0.5393,0.5396,0.546,0.547,0.5506,0.5559,0.5571,0.5584,0.558,0.5696,0.5697,0.5698,0.5667,0.5667,0.5666,0,0,0,0,0,0.5152,0.5173,0.5187,0.5201,0.5285,0.5338,0.535,0.5389,0.5393,0.5407,0.5447,0.5468,0.5574,0.5564,0.5578,0.5592,0.5696,0.5697,0.5698,0.5668,0.5667,0.5666,0,0,0,0,0,0,0.5109,0.5182,0.5198,0.5239,0.5282,0.5346,0.5364,0.5386,0.543,0.5431,0.548,0.5494,0.5539,0.557,0.5557,0.5632,0.5637,0.5641,0.5609,0.5609,0.5608,0.56,0.5584,0,0,0,0,0,0.5105,0.514,0.5202,0.5233,0.5254,0.5305,0.533,0.5357,0.5404,0.5423,0.5466,0.5512,0.5557,0.5584,0.5628,0.5672,0.5689,0.569,0.5689,0.5688,0.5691,0.5722,0.5724,0.5703,0.5703,0.5703,0,0,0.5095,0.5139,0.5159,0.5226,0.5262,0.5301,0.532,0.5359,0.5389,0.5429,0.5478,0.5512,0.5567,0.5614,0.5638,0.5642,0.5701,0.569,0.5688,0.5692,0.5723,0.5725,0.5727,0.5704,0.5704,0.5704,0,0,0.5098,0.5134,0.5165,0.5202,0.5257,0.5292,0.53,0.5362,0.5386,0.5435,0.5468,0.5505,0.5579,0.5618,0.5648,0.5671,0.5694,0.5684,0.568,0.5709,0.5711,0.5713,0.5724,0.5727,0.5687,0.5687,0.5686,0,0.508,0.5137,0.5179,0.5217,0.5247,0.5286,0.532,0.5354,0.5421,0.5442,0.5446,0.5543,0.5582,0.5642,0.5648,0.5669,0.5683,0.5676,0.5707,0.5709,0.5712,0.5723,0.5727,0.5685,0.5685,0.5685,0.5686,0,0.5114,0.5154,0.5173,0.5237,0.5269,0.5305,0.5355,0.5383,0.5409,0.5444,0.5497,0.5546,0.5603,0.5619,0.5643,0.5684,0.5685,0.5697,0.5704,0.5712,0.5724,0.5728,0.5683,0.5684,0.5684,0.5684,0,0,0.509,0.518,0.5186,0.5218,0.5283,0.5316,0.5356,0.5411,0.5436,0.5482,0.5519,0.5583,0.5596,0.563,0.566,0.5685,0.5705,0.5695,0.5698,0.5698,0.5757,0.5748,0.5752,0.572,0.5721,0.5722,0.5753,0,0.5104,0.5174,0.5215,0.527,0.531,0.535,0.5385,0.5431,0.5466,0.5507,0.5547,0.5593,0.5605,0.5626,0.5653,0.5696,0.5718,0.5695,0.5758,0.576,0.5744,0.5757,0.5747,0.5774,0.5757,0.5758,0.5759,0,0.5128,0.5174,0.5233,0.5299,0.5317,0.5347,0.5404,0.5441,0.5496,0.552,0.556,0.5591,0.5638,0.5641,0.5709,0.5693,0.5722,0.5748,0.575,0.5758,0.576,0.5768,0.5783,0.5787,0.5766,0.5765,0.5765,0,0.5108,0.5185,0.5231,0.5257,0.5333,0.5355,0.5388,0.5443,0.5475,0.5525,0.5547,0.5602,0.5632,0.5675,0.5722,0.5719,0.5787,0.5793,0.5811,0.581,0.5823,0.5822,0.5844,0.5839,0.5839,0.5839,0.5839,0,0.5119,0.5154,0.5224,0.5252,0.5295,0.5343,0.5385,0.5422,0.5471,0.551,0.5548,0.5584,0.5642,0.5687,0.5724,0.5777,0.579,0.5813,0.5823,0.5811,0.5808,0.5831,0.5831,0.584,0.584,0.5839,0.5839,0,0.5103,0.5151,0.5205,0.5274,0.5293,0.5321,0.5382,0.5414,0.5452,0.5501,0.5516,0.5577,0.5632,0.5683,0.5756,0.5781,0.5836,0.5847,0.5817,0.5823,0.5839,0.5838,0.5878,0.5888,0.5873,0.5873,0.5873,0,0.5107,0.5136,0.5209,0.5238,0.5271,0.5316,0.535,0.54,0.5434,0.5501,0.5525,0.5583,0.5632,0.5719,0.5772,0.5829,0.5844,0.5854,0.5852,0.5841,0.5847,0.5845,0.585,0.5853,0.5853,0.5853,0.5853,0,0.5111,0.5135,0.518,0.5236,0.5275,0.5322,0.537,0.5392,0.5452,0.5489,0.5545,0.5583,0.566,0.5718,0.5783,0.582,0.5848,0.5853,0.5861,0.5849,0.5832,0.5845,0.5817,0.5852,0.5852,0.5852,0.5852,0.5852,0.5108,0.5136,0.5194,0.5245,0.5287,0.5332,0.5366,0.541,0.5458,0.5523,0.5551,0.5609,0.5669,0.5758,0.5796,0.5845,0.5851,0.5861,0.5864,0.5866,0.5865,0.5823,0.5857,0.5857,0.5857,0.5857,0.5857,0,0.5115,0.5155,0.5202,0.5269,0.531,0.5333,0.5388,0.5422,0.5473,0.5525,0.5574,0.5642,0.57,0.5759,0.5821,0.5849,0.5864,0.5864,0.5863,0.5872,0.5855,0.5843,0.5851,0.5851,0.5851,0.5851,0.5851,0.5851,0.5124,0.5175,0.5206,0.528,0.5321,0.5378,0.5408,0.5452,0.5494,0.5568,0.5617,0.5654,0.5711,0.5779,0.5835,0.5851,0.5873,0.587,0.589,0.5873,0.5873,0.5873,0.5862,0.5874,0.5874,0.5904,0.5904,0.5904]},{"header":{"parameterUnit":"m.s-1","parameterCategory":1,"la1":30.2991,"la2":30.254,"lo1":-89.0895,"lo2":-89.0444,"dy":0.0017,"dx":0.0017,"nx":28,"ny":28,"refTime":"2024-05-10T03:00:00:Z","depth":0,"parameterNumber":3,"parameterNumberName":"V-component_of_WINDS"},"data":[0,0,0,0,0,0,0,0,0,0,0,0,0,0,0,0,0,0,0,0,0,0,0,0,0,0,0,0,0,0,0,0,0,0,0,0,0,0,0,0,0,0,0,0,0,0,0,0,0,0,0,0,0,0,0,0,0,0,-4.5192,-4.5191,0,-4.5138,-4.5138,-4.5137,-4.5108,-4.5108,-4.5108,-4.5108,-4.5048,-4.5046,-4.5045,0,0,0,0,0,0,0,0,0,0,0,0,0,-4.5262,-4.5261,-4.5192,-4.5191,-4.519,-4.5138,-4.5138,-4.5137,-4.5108,-4.5108,-4.5108,-4.5108,-4.5048,-4.5046,-4.5045,0,0,0,0,0,0,0,0,0,0,0,0,0,-4.5222,-4.5261,-4.5192,-4.517,-4.5167,-4.5139,-4.5138,-4.5137,-4.5108,-4.5108,-4.5108,-4.5108,-4.5049,-4.5047,-4.5044,-4.5032,0,0,-4.5037,-4.5036,0,0,0,0,0,0,0,0,-4.5225,-4.522,-4.5174,-4.5171,-4.5168,-4.513,-4.514,-4.5101,-4.5108,-4.513,-4.5108,-4.5108,-4.5075,-4.507,-4.506,-4.5029,-4.5027,-4.5037,-4.5036,-4.5035,-4.5034,0,0,0,0,0,0,0,-4.5227,-4.5222,-4.517,-4.5173,-4.517,-4.516,-4.5155,-4.5133,-4.5103,-4.5128,-4.5126,-4.512,-4.5073,-4.5063,-4.5059,-4.5026,-4.5037,-4.5035,-4.5034,-4.5033,-4.4978,-4.4978,0,0,0,0,0,0,-4.5234,-4.5224,-4.5172,-4.5169,-4.5197,-4.5159,-4.5153,-4.5142,-4.5104,-4.5098,-4.5121,-4.5119,-4.5067,-4.5061,-4.5057,-4.5037,-4.5035,-4.5033,-4.5031,-4.4978,-4.4978,-4.4978,0,0,0,0,0,0,-4.5236,-4.523,-4.5174,-4.5196,-4.5188,-4.5158,-4.5146,-4.5141,-4.5131,-4.5098,-4.5092,-4.5116,-4.5066,-4.506,-4.5038,-4.5035,-4.5032,-4.5029,-4.4978,-4.4978,-4.4978,-4.5001,0,0,0,0,0,0,-4.5238,-4.5231,-4.5228,-4.5196,-4.5187,-4.5159,-4.5146,-4.514,-4.5127,-4.5125,-4.5092,-4.5086,-4.5066,-4.5042,-4.5036,-4.5032,-4.5028,-4.4978,-4.4978,-4.4978,-4.5,-4.5001,-4.5002,0,0,0,0,0,-4.5241,-4.5236,-4.5228,-4.5221,-4.5183,-4.5159,-4.5153,-4.5132,-4.5127,-4.5122,-4.5101,-4.5087,-4.5036,-4.504,-4.5033,-4.5028,-4.4978,-4.4978,-4.4978,-4.4999,-4.5001,-4.5002,0,0,0,0,0,0,-4.5266,-4.5231,-4.5222,-4.5207,-4.5186,-4.5154,-4.5148,-4.5135,-4.5114,-4.5112,-4.5084,-4.5077,-4.5057,-4.504,-4.5045,-4.5012,-4.5006,-4.5004,-4.5024,-4.5026,-4.5027,-4.5031,-4.5026,0,0,0,0,0,-4.527,-4.5256,-4.5225,-4.5214,-4.5205,-4.5178,-4.5167,-4.5152,-4.5129,-4.5119,-4.5096,-4.5073,-4.5051,-4.5037,-4.5016,-4.4997,-4.4988,-4.499,-4.4992,-4.4993,-4.4991,-4.4977,-4.4977,-4.4977,-4.4977,-4.4977,0,0,-4.5278,-4.5257,-4.5249,-4.5219,-4.5201,-4.5185,-4.5171,-4.5154,-4.5141,-4.5116,-4.5094,-4.5076,-4.5047,-4.5027,-4.5016,-4.5012,-4.4989,-4.4993,-4.4994,-4.4992,-4.4977,-4.4977,-4.4977,-4.4977,-4.4977,-4.4977,0,0,-4.5284,-4.5267,-4.5256,-4.5238,-4.5212,-4.5194,-4.5191,-4.516,-4.5148,-4.5126,-4.5106,-4.5088,-4.5053,-4.5032,-4.5017,-4.5013,-4.4998,-4.5006,-4.5012,-4.4999,-4.4999,-4.4999,-4.4995,-4.4994,-4.5005,-4.5005,-4.5005,0,-4.5296,-4.5273,-4.5251,-4.5235,-4.5221,-4.5199,-4.5186,-4.5169,-4.5136,-4.5126,-4.5122,-4.5075,-4.5054,-4.5027,-4.5026,-4.5015,-4.5009,-4.501,-4.5001,-4.5001,-4.5,-4.4996,-4.4995,-4.5006,-4.5006,-4.5006,-4.5006,0,-4.5288,-4.5272,-4.5265,-4.5235,-4.522,-4.5206,-4.518,-4.5167,-4.5153,-4.5134,-4.511,-4.5084,-4.5056,-4.5048,-4.5034,-4.5018,-4.5016,-4.5007,-4.4999,-4.5002,-4.4997,-4.4996,-4.5008,-4.5007,-4.5007,-4.5007,0,0,-4.5309,-4.5267,-4.5265,-4.525,-4.5218,-4.5204,-4.5187,-4.5161,-4.5149,-4.5126,-4.511,-4.5079,-4.5069,-4.5052,-4.5035,-4.5024,-4.5018,-4.5015,-4.5014,-4.5015,-4.4996,-4.5002,-4.5001,-4.5009,-4.5008,-4.5008,-4.4998,0,-4.5309,-4.528,-4.5259,-4.5237,-4.522,-4.5198,-4.5182,-4.516,-4.5141,-4.5122,-4.51,-4.5078,-4.5069,-4.5058,-4.5046,-4.5022,-4.5014,-4.5022,-4.499,-4.4989,-4.4997,-4.4999,-4.5007,-4.4999,-4.4996,-4.4996,-4.4996,0,-4.5306,-4.5285,-4.5262,-4.523,-4.5222,-4.5209,-4.5182,-4.5165,-4.5137,-4.5124,-4.5104,-4.5086,-4.5064,-4.5059,-4.5026,-4.5032,-4.5017,-4.5003,-4.5002,-4.4997,-4.4992,-4.4993,-4.4996,-4.4994,-4.4993,-4.4993,-4.4994,0,-4.5321,-4.5287,-4.5269,-4.5257,-4.522,-4.5211,-4.5194,-4.5167,-4.5152,-4.5127,-4.5116,-4.5089,-4.5073,-4.5051,-4.5025,-4.5024,-4.4994,-4.4987,-4.498,-4.498,-4.4974,-4.4975,-4.4973,-4.4967,-4.4967,-4.4967,-4.4967,0,-4.5323,-4.5309,-4.5275,-4.5263,-4.5246,-4.5221,-4.5203,-4.5185,-4.516,-4.5142,-4.512,-4.5103,-4.507,-4.5048,-4.5027,-4.5002,-4.4995,-4.4982,-4.4976,-4.4983,-4.4985,-4.4973,-4.4972,-4.4966,-4.4966,-4.4966,-4.4966,0,-4.5338,-4.5315,-4.5292,-4.5259,-4.525,-4.5238,-4.5208,-4.5194,-4.5174,-4.5152,-4.5145,-4.5112,-4.5085,-4.5057,-4.5019,-4.5005,-4.4979,-4.4972,-4.4989,-4.4986,-4.498,-4.498,-4.4969,-4.4965,-4.4963,-4.4963,-4.4963,0,-4.534,-4.5329,-4.5294,-4.5282,-4.5267,-4.5246,-4.5231,-4.5204,-4.5189,-4.5155,-4.5144,-4.5116,-4.5092,-4.5048,-4.5019,-4.499,-4.4981,-4.4979,-4.4976,-4.4983,-4.4979,-4.4979,-4.4977,-4.498,-4.498,-4.498,-4.498,0,-4.5346,-4.5335,-4.5314,-4.5289,-4.5272,-4.525,-4.5228,-4.5218,-4.5186,-4.5169,-4.5142,-4.5123,-4.5085,-4.5055,-4.5022,-4.5002,-4.4984,-4.4981,-4.4978,-4.4985,-4.4994,-4.4987,-4.4991,-4.4982,-4.4981,-4.4981,-4.4981,-4.4981,-4.5353,-4.5342,-4.5315,-4.5292,-4.5273,-4.5252,-4.5237,-4.5215,-4.5192,-4.5161,-4.5146,-4.5118,-4.5087,-4.504,-4.502,-4.4996,-4.4991,-4.4986,-4.4985,-4.4984,-4.4985,-4.4999,-4.4989,-4.4989,-4.4989,-4.4989,-4.4989,0,-4.5357,-4.5339,-4.5318,-4.5288,-4.5269,-4.5257,-4.523,-4.5214,-4.5191,-4.5165,-4.5141,-4.5108,-4.5079,-4.5047,-4.5016,-4.5002,-4.4993,-4.4994,-4.4994,-4.4989,-4.4992,-4.4997,-4.5002,-4.5002,-4.5002,-4.5002,-4.5002,-4.5002,-4.5356,-4.5335,-4.5321,-4.5288,-4.5269,-4.5244,-4.5229,-4.5208,-4.5187,-4.5152,-4.5129,-4.5109,-4.5079,-4.5045,-4.5016,-4.5007,-4.4995,-4.4999,-4.4987,-4.499,-4.4989,-4.4988,-4.4993,-4.4997,-4.4997,-4.4986,-4.4986,-4.4986]}]]